Theta_e
328 322 314 316 314 311 309 303 296 293 287 287 285 286 289 293 293 294 294 295 295 298 298 302 299 300 299 297 299 303 308 301 299 294 292 302 322 334 334 336 338 340 341 342 340 342 344 347 349 349 349 349 348 348 347 347 346 346 346 344 344 343 343 342 342 341 341 340 340 339 339 339 343 346 346 346 346 345 344 343 341 341 341 341 340 341 340 341 341 341 342 342 342 340 337 338 337
323 318 313 319 314 309 306 299 291 286 285 285 287 285 288 291 293 292 292 292 295 300 300 307 309 311 311 312 312 309 304 319 311 310 321 330 333 332 335 338 339 339 342 342 341 342 342 345 348 349 349 349 348 347 346 347 346 346 345 344 343 341 341 341 341 341 340 340 340 339 338 343 346 345 344 345 345 344 343 342 342 341 340 341 340 340 339 340 339 340 341 341 341 338 338 336 336
318 316 315 312 310 306 302 300 294 283 285 283 284 286 290 292 291 291 292 294 297 299 303 304 302 301 304 305 303 302 298 322 322 322 327 334 330 333 337 338 340 341 343 342 341 342 342 343 347 349 349 349 348 347 347 347 346 346 345 344 343 342 342 342 341 341 340 339 339 339 338 346 346 345 345 345 345 344 343 341 339 339 340 340 339 339 339 337 339 340 340 341 341 339 339 338 337
314 317 314 308 307 301 296 291 287 286 286 281 284 288 292 290 291 291 293 295 297 298 299 301 299 300 305 303 306 312 314 318 322 326 326 330 330 336 338 339 341 342 343 342 341 341 341 344 346 349 349 349 348 347 346 346 345 346 345 345 343 342 341 342 341 339 340 339 339 338 342 346 345 345 345 345 345 344 344 341 339 339 339 339 338 338 337 338 339 340 340 340 340 339 338 338 337
315 317 310 307 303 301 293 290 285 282 284 283 285 286 289 291 294 293 297 296 297 297 297 299 303 307 307 308 307 305 306 317 323 325 326 329 332 338 339 340 341 341 342 342 341 340 340 343 346 347 349 349 348 347 346 346 346 346 345 344 344 343 342 341 341 340 339 339 339 338 344 344 344 344 344 343 342 342 342 340 337 337 338 338 338 337 337 338 339 340 341 340 339 338 339 339 339
311 311 313 308 304 302 294 290 288 285 283 286 286 290 290 294 294 294 298 297 298 296 296 296 303 305 308 310 310 307 313 315 321 322 325 327 335 338 340 339 340 341 342 342 341 339 340 342 345 346 349 349 348 347 347 347 347 346 346 345 343 342 342 341 341 340 338 339 339 338 344 344 343 342 342 342 341 341 341 339 337 336 336 336 336 337 337 339 339 339 340 340 341 342 341 340 340
313 307 306 304 302 298 293 285 285 284 291 288 288 291 295 294 295 294 296 297 298 296 296 301 303 304 304 307 311 315 317 321 322 323 327 330 336 338 339 339 339 340 341 341 340 339 340 342 346 348 348 348 348 347 347 347 346 346 346 345 344 342 341 341 341 340 339 339 339 338 337 345 346 345 344 344 343 343 340 339 337 336 336 336 337 336 337 338 338 339 340 340 341 341 341 340 340
312 309 303 297 294 292 287 285 287 285 292 290 290 296 295 296 293 294 294 295 296 298 298 301 300 298 300 308 305 314 318 320 323 325 331 334 336 337 338 338 338 339 341 341 340 340 343 341 346 347 347 348 348 347 347 347 346 346 346 345 343 342 342 341 341 340 340 339 339 339 344 344 344 344 343 343 343 341 340 339 337 337 336 336 336 337 337 338 338 339 340 340 340 340 340 340 340
307 305 301 297 292 288 284 287 289 288 288 292 294 296 302 296 293 294 294 293 294 294 297 300 295 297 296 307 305 311 315 322 326 329 333 334 335 336 338 337 338 339 340 341 341 340 340 341 344 347 346 347 348 347 347 347 346 346 346 345 344 342 341 341 341 340 339 339 338 342 344 343 342 342 342 342 342 341 339 337 336 335 335 336 336 336 337 339 339 339 340 340 340 339 339 339 339
306 302 294 294 289 289 282 286 288 290 290 293 294 296 296 294 294 293 292 294 295 294 296 295 295 297 300 304 307 314 318 321 326 329 331 334 335 336 336 337 339 339 339 341 341 340 340 344 340 343 344 346 347 347 347 347 346 346 345 345 344 343 341 341 341 340 339 339 337 341 343 342 341 341 342 342 342 341 339 338 336 335 335 335 335 336 336 337 338 339 339 340 339 339 338 338 338
298 296 296 292 285 284 286 285 284 287 293 290 293 293 296 293 293 292 293 294 295 295 296 297 301 301 304 304 305 312 317 321 326 328 329 333 334 334 335 337 338 340 339 341 341 340 340 341 342 340 342 343 345 346 346 346 346 346 345 345 344 342 341 340 341 340 339 339 337 337 340 338 338 339 341 341 340 340 338 337 336 335 335 335 335 337 337 337 336 337 338 338 338 337 336 336 336
297 295 293 285 284 285 284 285 288 288 289 291 295 296 293 295 292 294 293 295 295 295 296 298 300 302 302 301 302 308 316 322 325 330 329 331 333 334 335 337 339 340 341 341 341 342 340 338 340 341 338 338 341 343 344 345 345 346 345 345 343 342 341 340 340 340 339 338 338 337 337 336 335 337 339 339 339 338 337 337 336 335 334 334 336 337 336 335 336 337 337 337 336 336 335 335 335
296 294 289 287 288 288 285 286 288 291 286 289 293 296 293 293 293 293 293 294 293 295 296 295 303 302 298 300 302 311 318 323 324 326 328 331 331 334 335 337 339 340 340 341 341 341 340 339 338 339 337 334 335 337 340 341 343 345 345 345 344 342 341 340 340 340 339 338 338 338 337 339 338 337 337 338 337 336 336 335 334 334 334 335 335 335 336 335 337 337 336 336 336 335 335 335 334
298 295 292 292 286 285 286 286 285 288 287 289 290 293 294 294 293 293 294 295 294 293 295 295 304 303 302 302 305 310 319 322 323 325 327 328 330 334 334 336 337 338 339 340 340 341 340 339 337 338 337 337 338 335 334 338 341 343 343 343 343 341 341 340 340 340 339 339 339 338 337 338 338 338 338 338 336 335 335 334 333 332 333 333 335 335 335 335 335 336 336 335 335 334 334 334 333
305 296 289 288 284 287 286 288 289 285 288 289 295 293 293 295 292 292 297 293 295 293 298 300 301 300 294 301 298 313 321 323 323 323 325 326 328 333 333 335 336 337 338 340 340 340 340 340 339 337 336 337 337 338 338 337 335 339 340 340 341 340 340 339 339 338 338 338 337 335 333 332 332 333 334 335 333 333 332 331 333 333 332 334 334 333 334 335 335 335 335 335 334 333 333 332 331
299 293 290 291 288 286 289 287 285 286 288 290 295 292 293 294 291 295 295 295 296 297 296 298 298 297 297 301 300 311 322 323 322 322 324 325 325 329 333 335 335 336 337 338 338 339 340 340 339 337 336 337 337 337 337 337 333 333 336 338 338 338 338 337 336 334 332 332 331 329 327 326 325 326 326 327 330 333 330 327 331 332 332 333 334 332 332 334 334 334 334 333 333 332 331 330 328
297 294 293 284 289 287 289 287 288 288 288 290 291 292 294 293 294 296 294 296 298 296 300 300 299 308 301 303 307 309 322 322 321 322 323 322 325 328 332 333 333 334 335 336 336 338 339 339 337 336 337 337 337 337 337 337 335 330 331 332 333 335 335 334 333 328 324 323 323 321 322 323 322 323 323 322 321 323 323 325 329 332 331 331 333 331 331 332 333 333 332 331 330 328 325 325 324
298 292 287 287 284 287 289 288 290 289 292 292 292 292 292 292 294 297 297 295 292 294 296 296 306 310 312 312 310 316 321 322 322 323 321 322 323 327 329 331 331 331 332 334 336 338 337 338 337 337 337 336 336 336 337 337 335 333 334 334 334 332 329 327 327 327 327 323 320 322 322 322 321 320 320 324 320 322 322 323 327 331 331 331 331 330 330 331 331 331 330 328 326 322 317 313 313
290 287 287 288 285 290 292 289 290 292 293 293 293 290 293 293 293 295 294 293 294 295 296 295 303 306 311 313 315 320 321 321 321 323 321 322 324 326 329 330 330 332 332 333 334 336 337 338 337 337 337 337 337 336 337 336 335 335 333 333 333 328 328 327 326 325 323 323 322 321 320 320 319 319 319 320 320 320 322 322 327 329 330 329 331 329 329 330 329 328 326 323 320 316 310 309 309
292 292 290 285 289 290 290 290 291 292 292 293 292 292 292 294 294 294 295 291 292 293 293 295 301 302 308 312 315 318 321 320 320 322 322 322 324 328 329 330 330 332 332 333 333 336 337 336 337 338 338 337 337 336 336 336 336 336 335 335 335 331 327 326 325 324 323 322 322 321 320 319 318 319 322 322 321 319 321 321 324 325 326 326 327 326 327 326 325 323 320 317 313 309 307 307 307
295 290 286 291 289 292 294 290 291 291 291 293 292 290 292 293 292 294 290 292 291 291 291 297 298 302 310 313 315 317 319 319 318 319 321 321 322 327 331 332 332 333 334 334 334 335 336 337 337 337 338 338 337 337 336 335 336 337 337 336 335 333 329 325 324 323 322 322 321 321 320 319 318 318 318 318 318 319 317 318 320 321 320 319 317 311 310 310 308 306 307 307 305 306 306 306 306
293 293 290 290 289 294 294 290 292 290 289 292 289 293 292 293 294 291 293 291 290 294 296 296 299 307 313 314 316 317 318 319 319 319 320 321 322 325 329 330 331 332 332 333 334 335 336 337 337 337 338 338 337 337 337 335 335 336 336 336 336 334 331 327 324 322 322 321 321 320 319 318 318 317 317 317 317 318 318 318 316 316 316 315 312 307 305 305 304 304 304 304 303 304 304 304 304
294 291 290 288 289 294 293 292 291 289 291 290 290 292 292 292 293 289 292 293 292 292 293 297 296 312 315 316 317 317 317 318 318 319 320 320 321 323 327 330 330 330 330 333 335 336 337 337 337 337 337 337 337 338 337 335 335 337 336 336 335 334 332 329 325 323 322 321 320 320 319 318 317 317 316 316 316 317 317 315 314 314 315 312 310 306 304 304 303 303 302 302 302 302 302 302 303
288 292 290 294 290 294 292 293 288 288 292 290 291 292 293 291 294 291 289 292 291 290 291 292 297 314 316 316 316 318 318 318 319 321 321 322 323 323 325 327 330 331 330 332 334 335 335 336 337 337 337 337 337 338 337 336 336 337 336 334 335 333 332 330 327 324 322 320 320 320 319 319 318 317 316 315 315 315 316 315 314 313 314 310 308 306 303 302 302 302 301 301 302 301 302 301 302
292 293 291 292 291 292 289 289 288 289 290 291 291 292 293 290 292 291 291 294 294 292 293 295 310 313 313 315 315 316 316 317 318 319 319 321 321 320 318 318 322 326 329 331 333 334 335 336 337 337 337 337 338 338 337 336 336 337 336 335 335 331 334 332 329 326 323 321 320 320 319 318 317 317 316 315 314 314 314 313 312 313 312 309 307 304 303 302 301 301 302 302 301 301 300 300 299
289 293 290 292 292 291 290 292 290 290 293 290 292 292 291 290 290 292 294 293 293 294 297 303 310 311 312 314 315 315 315 316 317 316 319 319 315 316 319 319 321 324 328 331 331 332 334 334 336 337 337 337 338 338 337 336 336 336 336 335 336 333 335 334 331 326 325 322 320 319 319 319 318 318 316 315 314 313 313 312 312 311 311 307 306 304 302 301 301 300 301 302 301 300 300 299 299
288 290 290 291 291 292 291 293 291 290 292 290 292 290 291 291 292 290 290 292 294 295 296 301 309 310 312 312 314 314 315 315 316 317 312 313 314 315 319 317 318 323 325 328 331 332 332 332 335 337 338 336 338 337 337 337 336 336 336 336 336 334 335 335 332 329 325 324 323 321 319 319 318 318 317 315 314 313 312 312 312 311 309 306 306 304 302 301 300 301 301 302 301 300 299 298 299
292 291 291 291 289 293 291 291 292 291 294 289 292 291 291 292 292 290 296 291 293 296 294 299 301 308 310 311 312 314 314 316 315 311 314 314 316 316 317 319 319 320 322 324 328 330 331 332 334 336 338 337 336 337 336 337 336 336 335 336 335 335 335 335 334 331 325 324 325 322 321 320 319 318 317 315 314 312 311 311 311 310 309 305 306 303 302 301 300 299 299 300 299 299 297 296 297
292 293 292 290 287 293 291 293 292 291 293 292 291 292 290 291 290 292 292 290 293 294 294 294 297 300 304 308 310 310 313 313 311 312 315 316 317 318 317 320 320 320 323 325 325 326 328 330 332 334 337 336 336 337 337 336 337 336 335 335 335 335 335 335 334 333 329 326 326 324 322 320 319 319 318 316 313 313 311 310 309 309 308 305 306 303 301 299 298 297 297 297 297 297 297 296 296
292 290 287 288 285 286 291 289 290 293 293 290 291 284 282 285 293 293 291 290 292 293 292 292 293 293 295 299 306 309 310 307 309 313 315 316 316 316 316 318 318 320 321 322 322 324 327 329 330 332 334 335 334 337 337 336 335 335 335 336 335 334 335 335 334 334 332 328 326 326 323 321 319 319 319 317 315 313 311 310 310 309 307 306 306 303 300 298 297 297 295 296 297 297 296 296 295
291 290 286 285 286 285 288 290 290 292 292 292 290 283 282 283 284 287 287 289 292 292 292 292 292 292 292 294 298 303 306 308 310 312 313 314 315 315 315 316 317 318 317 317 320 324 324 327 328 330 329 331 330 334 335 336 335 335 334 335 335 334 334 334 335 334 334 332 328 328 325 322 320 320 319 318 315 314 312 310 310 311 309 309 307 303 300 297 297 296 295 295 295 294 294 295 295
283 286 283 280 283 282 286 289 290 291 293 289 289 283 284 288 289 288 289 290 289 291 290 290 290 292 292 291 293 296 299 302 305 307 309 312 313 314 314 315 317 317 318 319 319 320 322 324 326 328 328 328 329 330 333 334 334 334 334 329 335 334 334 334 334 334 334 334 331 330 327 324 321 321 319 318 316 314 312 310 310 310 309 309 307 305 301 298 296 296 295 296 294 293 294 294 295
282 283 281 284 283 282 286 292 289 291 292 292 289 283 282 289 288 289 289 289 289 289 289 288 289 291 292 293 293 294 295 296 297 300 304 306 310 313 314 314 316 317 319 319 318 318 320 322 323 325 326 327 328 328 329 331 332 332 333 332 334 333 334 333 334 334 334 333 333 331 330 327 324 322 320 318 316 314 313 311 310 310 309 309 308 305 302 300 298 296 295 296 296 294 294 293 293
286 281 282 279 282 283 284 286 290 289 291 290 289 288 284 287 287 287 289 290 291 291 290 289 290 291 292 293 293 294 294 296 297 298 299 301 305 308 312 312 314 316 317 318 319 319 320 321 322 324 326 326 327 327 327 328 330 331 330 331 329 333 333 333 334 334 334 334 333 332 332 329 326 324 322 319 317 315 314 312 310 309 309 310 308 306 303 300 299 298 296 296 296 295 294 293 293
282 284 283 284 282 281 282 287 290 291 288 289 287 287 289 291 293 293 293 291 291 291 292 292 292 291 292 293 293 293 294 295 297 299 299 298 300 303 308 311 312 313 316 317 318 319 319 320 320 321 322 324 325 325 324 324 324 325 328 328 328 330 332 332 333 333 333 334 333 333 331 331 327 327 324 321 318 316 315 314 310 310 308 309 308 306 303 300 298 298 297 296 296 296 295 294 294
285 286 283 280 283 284 284 285 285 290 289 289 286 288 289 291 291 292 293 290 290 291 290 290 291 292 293 293 293 294 295 296 298 297 297 297 298 300 303 307 310 312 314 316 316 317 318 318 319 320 321 323 323 323 321 321 320 322 323 320 323 326 329 329 330 332 332 333 332 333 332 332 330 327 327 324 321 317 316 316 312 310 309 309 309 307 303 300 298 297 297 295 294 293 294 294 293
285 283 280 281 281 283 284 287 290 288 288 287 287 287 287 289 291 293 293 289 288 288 290 292 292 292 293 294 294 295 295 296 297 297 297 298 299 298 300 303 306 307 310 312 314 315 317 319 318 319 320 320 322 322 321 321 320 320 320 323 323 325 326 327 327 329 330 331 331 332 332 331 330 329 327 326 324 320 319 319 317 313 311 309 308 307 306 301 300 298 297 295 294 292 292 293 292
286 284 283 282 283 286 287 289 288 288 288 283 282 284 286 287 289 290 291 287 289 290 291 290 291 292 292 292 293 294 296 295 294 295 295 294 296 297 297 301 303 306 308 311 314 316 317 318 318 319 318 319 321 323 322 321 322 323 322 322 323 323 323 323 325 326 327 327 329 330 330 331 332 331 327 328 326 324 321 320 318 315 313 311 309 309 307 302 300 298 296 294 295 293 292 292 292
283 285 281 283 284 282 285 287 287 288 289 285 281 286 289 289 290 291 290 291 291 290 290 292 291 291 291 292 292 294 294 295 294 295 293 294 294 295 296 298 302 307 307 310 313 314 313 315 317 317 317 319 320 321 321 321 320 318 318 314 320 311 313 321 322 322 323 324 325 328 330 331 331 330 330 327 327 326 324 322 320 318 315 313 311 309 306 303 301 298 296 295 293 294 292 293 292
282 282 283 282 281 285 285 285 286 287 287 287 285 286 289 288 287 289 290 289 289 289 289 290 291 291 292 293 294 294 294 294 295 295 295 293 292 293 293 297 299 303 303 305 309 313 314 315 316 316 316 317 319 319 318 319 315 311 307 305 309 312 310 308 315 315 319 321 323 324 326 329 330 330 329 328 327 327 326 324 322 319 317 315 312 310 307 304 301 299 296 296 295 292 291 290 292
282 280 280 282 286 285 284 287 286 282 287 284 284 285 285 280 281 284 288 283 286 288 287 289 291 291 293 293 292 293 294 293 293 294 294 291 292 294 296 298 296 299 303 306 308 312 315 315 316 317 317 316 317 315 315 312 309 306 302 303 303 306 306 307 311 315 317 317 320 320 322 322 325 327 329 328 325 327 326 325 323 321 318 316 314 312 308 306 302 300 297 296 295 295 291 291 291
283 282 283 283 282 286 286 282 285 277 281 282 283 279 275 277 279 281 284 283 286 283 284 287 290 291 290 291 293 292 291 290 293 295 296 293 292 292 292 294 297 299 301 305 307 310 311 312 312 313 313 312 314 313 313 312 313 312 308 310 307 304 308 306 310 314 315 316 318 317 319 320 321 322 325 327 327 325 326 326 325 323 320 318 315 314 311 308 304 300 298 298 296 297 295 291 290
283 286 284 283 284 284 284 285 281 279 279 283 281 280 275 279 281 284 283 282 286 287 286 289 288 288 288 289 290 290 291 292 290 291 292 292 293 293 294 295 297 298 300 300 301 303 306 307 309 311 312 311 310 309 309 310 310 310 311 314 314 313 313 311 307 305 312 314 315 317 318 317 319 320 320 322 325 325 326 326 324 322 320 318 314 314 312 309 306 302 300 299 298 298 297 293 291
283 283 283 285 285 285 283 281 283 279 279 282 279 275 277 279 282 281 280 282 285 286 288 287 287 286 286 288 289 289 289 289 291 292 292 292 293 294 297 296 295 298 298 298 299 300 305 306 307 308 308 307 306 307 308 310 312 310 310 311 312 312 313 313 307 306 303 306 312 315 315 316 316 317 319 318 319 320 319 321 321 320 319 319 315 314 313 310 307 304 301 301 300 299 298 297 294
284 284 285 284 285 283 281 280 280 280 281 280 278 284 280 276 280 281 280 285 284 286 286 285 287 289 288 288 287 287 288 288 290 292 293 293 293 294 295 296 295 296 297 297 298 299 300 301 302 303 304 304 303 305 307 307 310 311 311 311 310 310 310 307 300 301 303 301 307 309 313 314 314 314 315 316 316 316 315 317 318 317 317 317 312 315 313 310 307 304 301 300 300 299 299 299 297
287 284 285 283 282 282 280 279 281 279 279 275 279 281 276 277 278 279 279 283 283 283 285 287 288 289 289 290 290 289 288 288 289 291 292 293 294 293 292 293 294 296 296 296 297 297 298 298 300 301 302 302 302 304 305 306 307 307 308 308 309 309 303 300 299 301 300 298 304 305 309 311 312 312 312 312 313 313 313 313 314 315 316 317 312 314 313 310 307 305 303 301 301 300 300 299 298
288 285 287 283 280 280 278 278 276 277 272 275 278 279 279 277 279 279 282 284 281 282 285 285 287 290 293 292 292 292 292 291 290 290 290 292 290 291 290 295 294 294 294 295 296 296 296 297 298 300 301 300 300 303 304 305 305 306 308 308 308 308 304 302 300 300 298 297 301 302 303 306 308 311 311 310 311 312 312 311 312 313 314 312 312 313 313 312 309 307 305 303 302 301 300 299 298
287 284 280 285 281 278 278 272 275 273 269 273 276 278 279 275 275 280 281 282 283 288 290 290 291 291 291 290 291 291 290 291 291 290 292 291 291 291 291 293 292 292 294 295 295 295 296 296 296 299 298 299 299 301 301 303 304 305 305 306 306 306 304 303 303 304 302 302 302 302 300 299 301 304 306 308 308 308 309 310 309 311 311 313 313 313 314 313 311 308 306 304 302 302 302 300 299
284 282 283 277 272 269 273 269 274 271 270 279 277 278 279 280 282 285 284 285 285 284 286 286 291 289 289 290 290 290 290 289 290 290 290 291 290 291 292 290 291 292 292 293 294 294 294 295 296 298 299 297 299 299 301 302 302 303 304 304 304 304 303 303 304 303 302 302 302 301 300 300 298 300 303 306 308 307 308 309 310 310 311 311 312 314 314 313 311 309 307 305 303 302 302 301 300
283 285 277 273 271 269 264 261 262 266 273 276 278 279 278 278 281 288 290 289 287 286 285 285 288 290 290 289 290 290 290 289 289 289 289 290 290 291 290 290 290 290 291 292 292 294 294 295 295 297 299 296 296 298 300 300 301 302 302 303 303 303 303 303 303 303 302 302 301 302 301 301 301 301 302 303 306 307 306 307 308 309 309 309 310 311 312 313 311 310 308 306 304 304 303 302 301
285 282 284 280 269 266 266 263 271 271 271 274 276 275 274 275 285 286 286 286 286 285 284 284 285 287 287 287 287 288 288 288 288 289 290 292 293 291 293 292 290 290 290 290 291 292 293 295 295 295 297 296 296 298 298 300 301 300 300 301 302 302 303 303 303 302 302 301 300 300 301 301 301 301 301 302 300 302 304 305 305 306 306 307 308 308 309 310 310 309 308 307 306 305 303 302 302
282 279 280 278 279 274 273 267 267 265 270 271 274 276 276 281 283 285 285 285 286 286 287 285 288 286 284 288 289 289 288 289 290 290 292 292 291 290 291 292 291 291 290 289 291 292 293 294 295 295 297 297 296 296 298 300 300 300 299 300 301 301 300 300 300 298 300 300 300 300 301 300 301 301 300 299 299 300 301 301 302 303 304 306 308 308 308 308 308 307 306 305 304 304 303 302 302
283 283 279 280 280 279 271 270 272 271 269 273 270 278 281 281 283 288 286 286 286 285 285 284 284 285 284 288 286 285 287 288 290 292 292 293 292 291 291 290 291 290 291 292 293 292 294 295 295 296 296 295 295 296 298 298 298 298 299 299 299 299 299 300 301 300 300 299 299 300 300 300 299 299 299 298 299 298 299 300 300 300 301 304 306 307 307 307 307 305 305 304 303 303 302 302 302
284 279 281 282 282 279 277 273 265 263 269 272 271 276 276 276 279 281 284 286 285 285 283 283 285 283 287 291 286 286 288 289 289 290 290 290 291 292 293 293 292 292 292 292 292 292 293 294 295 297 296 297 296 296 296 297 298 298 299 299 299 300 300 300 300 299 298 298 298 298 297 297 298 298 298 298 298 298 298 297 299 299 299 300 302 304 305 305 305 304 304 304 304 303 302 301 300
283 280 284 285 278 277 276 271 270 266 265 267 270 273 274 278 280 279 283 285 287 287 284 284 287 288 288 289 290 290 289 290 293 292 293 295 295 295 294 295 295 293 292 291 292 292 293 293 295 295 297 297 296 296 296 296 297 299 300 299 299 299 299 299 298 298 297 298 298 298 297 298 297 296 296 296 296 296 295 296 296 297 297 299 300 301 302 302 303 302 301 301 300 301 300 299 298
286 286 284 284 279 275 274 276 270 272 268 263 271 267 278 279 279 281 285 283 286 286 286 284 285 286 289 290 290 292 294 294 293 294 292 292 292 292 292 293 295 295 294 294 292 291 292 293 293 295 295 295 295 295 295 296 297 297 298 297 297 298 298 298 298 298 298 298 298 298 298 295 297 296 296 296 296 294 294 294 293 294 294 294 296 297 298 299 298 299 298 297 297 297 297 297 297
283 283 281 285 280 282 279 277 274 274 262 262 267 271 274 277 281 282 286 286 284 282 287 287 287 286 287 290 291 293 294 295 294 292 290 290 291 291 291 289 289 288 288 290 290 292 293 293 294 294 295 297 296 297 295 297 295 297 296 297 297 296 296 297 296 297 297 298 297 297 297 297 293 295 293 293 293 294 294 293 293 293 293 293 294 295 295 295 295 295 295 295 295 295 296 296 295
288 287 284 286 281 277 275 276 277 269 272 271 264 274 276 281 282 285 286 285 283 284 287 288 287 289 289 292 291 290 292 292 291 290 289 290 289 289 288 288 287 286 289 289 290 288 291 292 295 295 294 296 296 297 296 297 295 296 296 296 296 294 296 295 295 295 295 296 296 296 295 291 293 293 292 293 293 293 292 293 293 294 292 292 293 295 294 294 294 295 295 296 295 294 295 295 294
Wind_Speed
5 4 3 0 3 2 1 6 2 3 4 0 1 1 2 0 1 1 2 1 1 1 0 1 1 2 1 3 6 4 1 6 4 7 3 1 1 5 6 5 7 7 7 5 3 3 4 7 8 10 12 12 13 13 13 13 12 12 12 12 12 12 12 11 11 12 12 13 13 12 12 12 15 16 17 16 17 18 17 17 17 16 16 16 16 17 17 17 16 16 15 16 17 18 16 16 17
3 3 3 0 0 2 2 2 3 2 6 2 2 1 2 2 1 4 5 2 2 1 1 6 6 8 10 11 8 3 2 2 3 1 1 1 3 3 3 7 8 10 8 4 3 4 4 5 9 10 12 12 12 13 13 13 12 12 12 12 12 12 11 11 11 11 12 12 13 12 12 15 16 15 15 15 16 17 17 17 16 16 16 16 16 17 17 16 16 15 16 18 18 17 17 17 17
3 5 1 3 3 3 2 4 1 1 5 1 3 5 1 1 5 5 3 3 4 5 4 4 4 4 1 2 2 2 1 2 2 1 1 3 9 5 5 6 6 9 9 3 4 4 4 4 8 10 12 12 12 14 13 13 12 12 12 12 12 12 11 11 11 11 11 11 12 12 12 16 15 15 15 15 16 17 17 17 16 16 16 15 16 17 16 16 15 15 16 18 18 17 17 17 17
1 4 0 3 3 4 1 3 4 8 4 6 0 2 1 4 6 5 3 2 2 4 0 1 3 1 1 4 0 2 2 1 1 2 5 6 3 6 6 7 7 7 6 3 3 3 3 5 8 10 11 12 13 13 13 12 12 12 12 12 12 12 11 10 10 10 10 11 11 12 14 15 14 14 14 15 15 16 17 17 16 15 15 15 16 16 16 16 15 16 17 18 17 17 17 17 17
2 1 2 2 3 1 3 1 4 3 3 5 5 3 3 4 5 3 1 1 2 1 0 1 3 3 0 4 1 0 3 0 1 1 1 1 1 6 7 8 8 8 7 4 4 3 3 6 7 9 12 13 13 13 13 13 12 12 12 12 12 11 11 10 10 10 10 10 10 11 16 15 14 14 14 14 14 15 16 17 16 14 14 15 16 16 16 15 15 15 16 17 17 17 16 16 16
2 2 2 1 1 2 6 1 2 2 5 5 3 4 4 5 5 5 1 0 1 1 2 1 2 3 1 1 2 1 2 3 2 1 4 4 7 7 9 7 8 8 8 5 4 3 4 7 8 9 13 13 14 14 13 13 12 12 12 12 12 11 11 10 10 10 11 10 10 10 16 16 13 12 13 14 14 14 16 16 15 14 13 15 16 16 16 15 15 15 15 16 17 16 16 16 16
2 3 3 3 2 4 3 3 2 3 1 6 2 3 7 5 5 3 1 2 0 3 1 1 2 4 3 1 1 1 1 2 0 2 5 3 8 8 9 7 8 9 9 5 4 4 4 8 9 10 11 11 14 14 13 13 13 12 12 12 12 12 11 11 10 10 10 10 10 11 11 15 16 16 15 15 15 17 17 17 15 14 14 14 15 16 15 15 15 14 15 15 16 17 16 16 17
2 1 1 1 1 3 3 1 2 3 0 4 2 6 5 6 4 2 3 2 2 1 1 3 1 4 0 3 1 1 5 1 3 1 6 8 8 8 8 8 8 10 8 6 5 4 7 9 10 10 11 12 13 13 14 13 13 12 12 12 12 12 12 11 11 10 10 10 9 12 14 14 14 15 14 14 15 16 18 17 15 14 14 14 15 15 15 14 14 14 15 16 17 17 16 17 17
3 3 0 4 2 3 2 1 1 1 4 1 2 3 4 4 4 5 2 1 0 0 2 4 1 1 2 1 1 2 4 3 1 4 9 8 10 9 7 8 9 9 8 6 5 5 5 8 10 11 11 11 12 13 13 14 13 13 12 12 12 12 12 11 11 11 10 9 9 13 14 14 13 12 13 14 15 15 16 17 16 14 15 14 14 15 14 14 14 15 16 17 17 17 17 17 17
0 1 1 2 3 1 1 1 2 1 1 1 3 5 6 4 4 0 4 1 1 3 1 1 2 1 3 2 1 2 1 4 0 5 6 8 9 8 8 8 8 10 9 7 6 5 5 8 10 11 10 10 11 12 13 13 13 12 12 12 12 11 11 11 11 11 11 10 9 13 14 14 13 13 13 14 15 15 16 17 16 14 14 15 15 14 14 14 14 15 16 17 17 17 17 17 17
1 5 2 3 4 2 2 2 2 3 1 3 2 3 2 4 4 2 1 3 1 2 1 2 2 3 3 1 2 3 2 1 3 9 6 8 8 8 8 7 7 9 10 8 7 5 5 5 11 11 11 11 11 11 11 12 13 12 12 12 11 11 11 10 11 11 10 10 9 11 13 12 12 13 14 14 15 15 16 16 15 14 15 15 15 15 15 14 14 15 16 17 17 17 17 16 16
1 1 2 3 2 5 4 4 1 2 3 2 1 1 2 6 2 3 2 6 1 0 2 4 2 6 2 0 1 2 5 1 5 7 5 6 7 6 7 6 8 7 8 8 7 6 5 4 6 9 11 11 10 11 10 11 11 12 11 12 12 12 11 11 10 10 10 10 9 8 10 11 11 12 13 14 14 14 15 15 15 14 15 16 15 15 14 14 15 15 16 17 17 17 16 16 16
1 1 4 5 1 0 2 3 2 1 1 3 3 1 4 4 4 6 4 3 1 4 1 5 6 2 1 2 2 5 2 5 4 4 5 5 6 5 5 6 7 8 8 7 8 7 6 4 5 6 7 10 10 10 10 10 10 11 11 12 11 11 12 12 11 11 11 10 9 9 8 8 8 9 12 14 13 12 12 13 13 13 15 16 15 14 15 15 16 17 17 17 17 17 16 16 15
3 5 4 1 1 4 5 3 1 3 3 3 2 1 6 3 4 6 7 5 2 3 2 3 5 5 1 2 1 3 6 5 4 4 3 4 5 5 6 6 7 8 8 8 9 8 7 6 5 5 5 6 5 8 9 10 10 11 11 11 11 11 11 11 11 11 10 9 8 7 6 7 9 9 8 9 11 11 10 12 13 13 13 15 15 14 15 16 17 18 17 16 17 16 16 16 15
1 2 4 4 1 1 1 4 8 4 4 3 2 6 2 3 3 4 7 6 5 3 1 1 2 2 4 6 4 8 9 7 5 3 4 4 5 5 5 6 7 6 6 8 8 8 8 7 6 5 5 5 6 6 5 7 10 11 10 10 11 11 11 10 10 9 9 8 8 8 7 8 9 11 11 11 10 10 11 10 12 12 13 16 14 14 13 14 15 16 16 16 16 16 16 15 15
4 5 3 2 0 3 3 1 1 3 3 4 1 4 4 1 1 6 4 2 1 1 0 2 1 1 0 6 1 7 9 7 4 4 5 4 4 4 6 5 5 6 6 7 6 7 7 7 6 4 5 5 5 5 5 5 8 10 10 10 11 10 10 11 10 9 9 9 9 9 9 8 8 8 10 8 10 10 10 8 10 9 11 14 14 13 13 13 14 15 16 16 16 16 16 15 14
2 3 1 3 1 2 2 3 6 3 2 4 1 4 5 1 1 0 1 1 6 1 2 0 1 1 3 4 1 3 8 6 6 5 5 4 5 4 4 4 4 4 3 5 5 7 7 7 6 6 5 6 7 6 5 5 6 9 8 10 10 10 10 10 10 10 9 8 8 9 8 6 5 5 6 5 8 6 9 9 9 10 11 12 14 13 12 13 14 14 15 15 15 15 14 14 13
1 1 5 1 2 1 4 5 9 1 5 5 4 5 6 3 0 1 1 5 3 1 2 3 1 1 3 5 3 3 7 8 6 8 6 6 4 5 6 6 6 7 6 6 6 7 6 6 6 7 6 6 5 5 5 5 5 7 5 5 5 7 8 8 7 6 7 5 8 7 5 5 5 4 4 5 4 5 7 10 9 10 11 9 13 13 13 13 14 15 15 15 15 14 11 8 8
3 2 3 5 4 2 5 3 5 3 3 4 4 1 6 5 7 2 3 1 1 1 0 2 2 2 4 3 3 9 10 7 7 8 9 10 8 9 8 7 7 7 8 7 6 7 7 7 6 8 7 7 6 6 4 5 6 5 5 5 5 6 6 6 5 5 4 5 4 4 5 4 4 4 4 4 4 6 6 9 9 10 10 9 12 12 12 13 14 14 15 14 13 11 7 6 6
1 4 2 2 7 2 4 3 3 2 4 5 5 2 2 1 3 1 2 4 0 6 4 1 1 3 1 1 4 7 8 7 7 9 10 10 8 10 9 9 8 10 9 9 8 6 7 7 9 9 8 7 7 6 5 5 5 5 5 5 5 5 5 5 5 5 4 4 5 5 4 4 4 5 5 8 6 4 5 7 9 10 9 9 12 7 10 12 14 14 14 12 8 5 5 5 5
1 3 3 3 4 2 2 4 3 3 4 5 5 2 1 1 3 2 4 6 3 6 6 9 10 7 6 5 5 7 8 8 7 7 9 9 7 7 10 11 12 10 8 6 6 7 9 8 8 8 7 7 7 6 6 6 6 5 5 5 5 5 5 5 5 5 4 4 4 5 4 4 4 4 4 5 5 5 4 4 5 5 4 5 8 6 6 6 7 6 6 6 5 5 6 5 5
3 1 1 2 2 0 2 4 2 2 4 7 3 7 4 1 0 3 8 7 7 9 9 9 8 9 11 11 9 7 9 11 10 10 12 12 13 11 8 6 4 4 4 7 8 8 9 9 9 8 7 7 8 7 7 7 7 6 6 6 6 5 6 5 5 5 5 5 4 5 5 5 4 5 4 4 5 5 4 4 4 4 4 4 5 6 6 5 5 5 6 6 5 5 5 4 4
2 1 1 3 2 0 0 1 2 5 4 6 5 4 3 4 1 2 7 8 5 6 3 8 6 12 11 9 11 10 10 12 12 14 13 13 12 11 11 9 9 9 7 9 8 7 8 9 9 8 8 8 8 7 6 6 6 6 6 6 7 6 6 6 5 5 5 5 5 5 7 5 5 5 4 4 5 5 5 5 4 3 4 5 4 6 5 5 5 5 6 5 5 5 5 4 4
4 3 0 0 2 1 2 0 1 2 10 5 3 2 3 3 3 1 4 7 6 1 1 3 5 6 8 12 12 15 16 16 17 16 16 17 17 17 14 12 10 6 6 9 8 8 9 11 10 10 9 8 8 8 7 8 7 6 6 6 7 7 7 7 6 6 5 6 5 6 5 6 7 6 5 5 4 4 5 4 4 5 5 5 4 5 6 5 5 5 6 5 6 5 6 4 5
2 0 1 0 1 1 2 1 4 2 2 0 4 5 1 4 2 1 6 10 8 3 1 4 7 9 7 10 13 10 10 9 10 11 7 8 8 6 3 4 5 5 9 10 9 9 9 10 10 11 10 11 8 8 8 7 7 7 7 7 7 7 7 7 7 6 6 5 5 6 6 7 6 6 6 5 4 4 4 5 5 5 4 5 5 5 5 6 5 5 6 6 5 6 6 5 5
3 1 4 1 1 2 2 1 3 2 1 2 4 1 1 2 3 3 8 7 3 3 5 5 7 8 10 11 13 12 12 14 12 9 15 9 4 5 9 7 6 9 11 10 9 10 8 9 11 12 12 11 10 9 7 7 8 8 8 8 7 7 7 7 8 7 6 6 6 5 6 6 7 7 7 5 6 6 5 4 5 5 5 5 5 6 5 5 6 5 5 5 5 5 6 5 5
3 4 3 4 1 1 3 1 1 1 1 0 3 1 0 3 2 7 2 4 1 4 5 3 9 10 10 9 9 10 12 14 16 12 3 5 7 9 11 7 9 11 8 11 11 10 8 9 11 12 11 10 9 9 9 9 8 8 7 7 8 7 7 7 8 8 7 7 7 7 7 7 7 6 7 7 6 6 6 6 6 5 5 5 5 5 4 5 5 6 6 6 6 5 5 4 5
5 7 3 6 6 1 1 2 0 1 0 1 3 0 0 2 1 7 0 4 1 6 4 5 5 7 10 9 10 10 10 12 7 5 13 10 12 13 13 13 14 11 11 14 12 9 9 12 11 11 12 10 10 10 8 9 9 9 8 6 8 8 8 7 7 8 9 8 8 9 8 7 7 7 8 7 7 7 7 6 6 6 5 5 5 5 5 5 5 4 4 5 5 5 5 4 3
2 3 2 4 5 0 3 1 1 1 0 0 0 0 2 0 7 1 1 3 1 3 5 5 6 5 5 6 7 6 12 8 5 8 13 14 12 10 14 14 13 12 12 12 10 8 12 11 11 11 11 11 12 12 9 7 8 9 8 7 7 8 8 7 7 7 9 9 9 10 9 9 8 8 8 9 8 7 7 7 6 6 5 5 5 5 6 5 5 5 5 4 5 5 6 5 4
1 6 3 2 3 3 2 2 1 1 0 1 1 2 7 8 11 1 1 4 1 1 3 4 5 5 5 5 7 8 7 5 8 13 13 12 11 10 13 13 10 11 10 7 7 12 11 8 8 8 10 12 12 11 11 8 7 8 9 8 7 7 8 8 7 7 8 9 9 11 10 9 9 8 8 8 8 7 7 8 8 7 6 5 5 6 6 6 6 6 6 6 5 6 6 5 5
3 0 4 1 1 3 2 0 1 4 1 1 1 3 6 5 5 5 5 0 4 4 6 6 5 5 5 5 6 9 10 9 13 13 13 11 10 8 11 9 9 10 7 7 13 14 9 10 8 8 10 10 10 11 11 11 9 7 7 9 8 8 7 8 7 7 7 8 9 10 11 11 10 9 9 9 9 8 9 8 8 8 7 7 6 5 6 5 6 7 7 7 5 5 5 5 5
3 4 2 2 3 4 6 1 2 4 1 4 4 1 7 9 8 2 3 1 4 6 6 5 6 6 6 5 6 8 11 8 10 10 11 12 10 10 11 13 10 9 12 11 10 7 10 10 9 10 9 11 11 11 10 9 9 8 7 7 7 8 7 8 8 7 7 7 8 9 11 11 12 12 10 9 9 8 8 9 10 8 8 7 6 6 6 7 6 6 5 7 8 5 6 5 4
4 2 1 2 0 3 4 0 1 2 1 2 2 4 4 4 4 3 2 3 3 4 4 5 6 7 7 7 7 7 8 8 8 11 13 12 11 11 11 11 11 13 11 10 10 9 9 10 10 11 12 13 11 10 9 8 8 8 7 7 8 8 8 8 8 7 7 8 7 8 10 10 10 10 11 11 9 9 8 7 7 11 11 9 8 8 7 6 8 7 6 5 7 7 7 7 5
3 2 1 3 3 2 2 4 1 1 1 3 2 1 6 5 8 6 5 3 2 0 4 5 6 6 7 6 6 8 8 9 11 12 14 13 12 12 12 10 11 10 9 11 11 11 12 10 11 12 11 10 10 10 10 9 8 7 6 7 7 8 9 8 7 8 8 8 7 7 9 10 10 11 11 11 9 8 8 7 7 7 8 10 10 9 9 8 8 9 8 6 6 7 7 8 7
7 3 1 1 1 2 2 2 1 1 2 3 1 2 9 11 11 10 7 0 2 5 6 5 5 6 7 7 7 8 9 10 15 12 10 9 10 10 10 11 10 10 10 11 10 10 8 8 8 10 10 9 9 8 7 7 6 5 6 6 7 9 8 8 7 8 8 7 8 7 7 8 10 11 11 11 11 11 9 8 7 7 7 7 8 8 6 7 7 8 11 9 5 4 5 5 5
8 10 6 4 5 3 2 4 2 2 1 2 3 6 8 10 8 10 11 1 2 6 5 6 8 7 8 8 8 8 9 13 13 7 7 7 8 9 9 8 8 8 8 8 9 8 9 7 7 8 9 9 6 6 6 6 6 7 8 4 7 9 8 7 7 8 7 8 9 9 8 7 7 10 11 9 9 9 10 10 11 12 12 9 8 10 9 9 11 11 9 11 9 5 4 5 6
5 4 5 3 4 1 2 2 1 1 2 5 5 5 6 10 10 12 11 3 5 6 9 10 8 8 8 9 10 11 11 16 6 5 8 9 9 9 8 6 7 6 6 7 9 10 10 12 10 12 10 8 8 8 8 9 9 7 6 10 11 8 7 7 7 7 7 7 7 8 10 10 8 8 10 11 10 8 8 8 6 5 7 11 10 11 11 12 12 11 9 8 12 9 4 6 7
6 6 5 1 1 2 1 1 2 2 1 1 1 2 8 11 12 13 10 4 9 11 11 10 11 10 8 8 11 13 14 6 5 7 7 5 6 5 5 5 6 8 10 10 12 14 13 10 11 11 7 9 10 11 10 10 10 11 10 10 9 7 7 8 8 6 7 5 6 7 8 9 11 10 8 9 10 10 9 8 9 10 9 9 10 9 8 7 6 5 7 6 3 9 8 10 9
3 6 4 3 2 2 3 1 2 2 1 5 1 4 9 10 11 12 9 12 8 6 7 8 8 9 9 9 12 13 9 13 6 8 6 6 5 4 4 5 7 11 9 10 11 7 7 8 10 8 9 10 10 11 10 11 8 6 7 5 8 5 4 6 5 4 4 6 6 7 8 8 9 9 10 10 11 11 10 9 9 8 11 11 9 8 9 10 10 10 10 10 8 3 3 6 10
5 5 4 4 2 2 1 2 1 3 1 2 2 6 11 6 7 13 10 6 6 6 6 10 8 11 12 14 12 10 11 11 12 9 8 5 5 4 4 6 9 6 5 6 7 10 9 9 9 9 10 10 10 10 11 8 6 4 1 2 3 4 5 4 5 3 4 6 9 7 7 7 8 9 8 9 8 9 13 14 13 12 12 11 12 12 11 12 11 10 10 9 11 9 6 9 10
1 2 3 3 1 2 2 1 1 0 1 2 2 4 9 4 4 4 2 2 2 6 5 7 10 10 12 8 7 8 11 8 9 9 8 5 5 7 8 8 4 6 8 9 10 10 9 13 13 12 10 10 8 8 8 5 5 4 3 3 4 3 3 2 4 6 6 6 6 7 8 5 5 7 9 10 9 9 8 8 9 11 12 13 12 12 13 15 16 16 17 14 14 14 11 8 10
1 3 4 4 4 5 1 2 2 4 2 3 3 3 3 4 6 7 8 7 7 4 3 8 10 8 5 9 13 6 5 5 8 10 10 6 6 5 5 4 6 7 8 10 6 6 5 7 6 6 6 6 8 8 8 7 8 9 7 6 5 4 6 5 9 11 8 8 9 4 5 6 6 6 6 8 10 9 9 9 10 10 12 13 13 14 14 12 13 14 16 15 15 13 13 11 11
3 4 4 4 7 5 5 1 3 1 1 2 2 1 6 5 5 5 5 6 9 7 3 11 7 8 7 10 9 6 6 8 6 7 7 7 7 6 6 5 6 7 7 1 4 5 5 6 6 7 7 6 6 6 7 8 7 7 10 12 11 11 11 9 5 4 6 6 5 6 6 5 7 7 7 7 8 11 12 12 10 10 9 9 8 9 11 14 15 16 13 13 15 12 10 12 14
4 1 5 6 6 5 4 4 2 1 1 3 4 3 2 8 7 5 3 5 8 9 11 7 8 7 7 8 8 7 6 6 6 6 6 5 5 5 7 4 4 5 1 3 4 4 6 6 5 6 5 5 4 5 7 9 10 9 9 9 9 10 11 10 6 6 4 4 7 8 6 6 6 7 7 6 6 6 6 6 7 7 8 9 11 11 11 10 9 9 13 15 12 12 14 14 14
2 2 6 4 4 3 5 4 4 0 1 6 3 0 0 5 8 4 3 4 7 10 9 8 8 7 6 7 8 7 6 5 5 5 6 5 5 4 5 5 3 2 1 3 4 4 3 3 4 4 5 5 5 6 8 8 9 10 10 9 9 8 7 5 3 3 4 4 5 5 6 6 6 6 6 6 5 5 5 6 6 6 6 6 7 9 10 11 13 13 12 11 12 12 12 11 8
1 6 7 7 7 6 4 4 4 1 1 5 2 2 2 8 6 6 2 2 7 7 6 6 5 6 5 3 3 3 3 3 3 5 6 6 5 4 4 3 2 1 1 1 1 2 2 3 4 4 5 4 5 6 7 7 7 7 7 7 10 8 5 3 3 4 4 4 6 6 6 6 6 6 6 6 6 5 5 4 4 5 7 8 8 9 10 11 10 11 13 14 14 15 12 13 14
9 4 7 6 9 5 3 6 2 3 2 6 5 2 2 5 5 6 3 4 4 2 3 3 4 4 3 1 2 4 4 3 3 3 3 4 4 3 2 1 1 2 1 1 1 1 2 3 4 4 4 4 4 6 6 8 6 6 8 8 9 9 6 5 5 5 4 4 7 6 6 6 5 7 5 6 6 5 6 5 5 5 4 3 5 7 9 9 12 14 15 15 14 16 14 14 13
5 3 4 5 3 6 3 5 5 1 5 5 1 2 1 6 6 6 8 4 3 1 1 1 3 5 4 5 5 5 4 4 5 5 5 5 5 3 4 3 3 3 1 1 1 1 2 3 3 4 3 4 4 4 5 6 6 7 6 7 8 8 6 7 9 10 8 9 8 7 5 4 5 5 4 5 6 6 6 6 6 6 6 6 6 5 7 8 7 8 9 11 13 13 11 11 12
6 7 7 6 2 4 3 3 2 5 5 0 2 1 1 10 8 4 4 9 5 5 7 3 2 5 4 4 6 5 5 4 4 4 5 5 5 5 5 5 4 3 1 1 1 1 1 2 4 4 5 4 5 4 6 6 6 7 7 8 7 6 7 8 9 9 7 8 7 7 6 7 5 6 7 8 7 8 8 9 9 9 9 8 8 8 8 8 8 10 11 11 11 13 13 12 11
4 8 6 5 1 1 3 3 1 5 5 4 1 0 5 3 6 13 17 8 4 6 8 7 5 7 5 6 6 6 4 2 2 3 4 4 4 4 3 3 4 4 4 3 1 1 1 2 3 4 5 4 4 4 6 6 7 7 6 7 7 6 8 8 8 8 7 7 6 8 8 8 7 9 8 9 8 8 8 8 8 8 8 7 8 9 10 10 10 10 11 13 14 14 13 15 15
7 1 9 9 8 5 3 3 5 5 4 2 3 1 7 3 0 1 4 5 5 4 4 5 7 6 5 6 7 5 6 6 2 3 3 4 5 5 5 4 4 3 3 3 3 2 1 3 3 4 4 4 4 5 4 7 7 6 6 6 7 6 8 7 8 6 6 7 6 7 7 6 8 7 8 8 5 7 8 8 8 9 8 8 8 8 8 8 10 10 11 13 13 12 13 13 13
0 3 6 5 6 6 1 4 2 0 1 2 1 6 4 4 3 8 3 4 5 5 5 3 7 3 4 6 4 5 6 6 5 5 4 2 4 4 4 4 4 4 4 3 3 2 2 4 3 4 5 5 4 4 6 7 7 6 6 7 8 8 7 6 5 5 6 6 7 8 8 8 7 6 6 5 6 7 8 8 9 9 9 9 9 9 8 8 8 8 9 9 12 9 11 12 13
4 4 4 4 2 9 6 1 1 1 3 8 2 7 7 8 6 9 2 1 3 3 4 3 5 6 3 3 3 4 5 5 6 6 5 5 4 2 3 4 4 4 5 4 4 2 4 4 4 5 6 4 5 5 6 6 6 6 7 7 7 7 7 8 9 8 8 6 7 7 7 7 6 6 6 6 7 7 8 8 9 9 8 8 9 9 9 8 8 8 9 9 10 9 9 12 12
8 2 7 2 2 4 5 4 2 3 3 7 2 7 5 3 8 5 3 4 5 1 2 2 2 3 1 0 2 3 4 5 5 4 4 3 3 4 3 1 1 3 4 5 5 4 4 4 5 6 6 7 5 5 6 6 7 8 7 8 8 9 9 8 7 7 6 7 7 6 5 6 7 7 7 7 7 8 8 8 8 8 8 8 8 8 8 7 7 7 8 9 10 9 11 9 10
4 4 4 7 4 2 1 4 2 1 2 6 4 2 5 7 8 5 0 6 7 7 3 2 0 1 0 2 2 2 3 4 5 5 6 7 7 8 7 8 6 2 1 4 6 4 4 4 5 5 8 6 5 5 5 6 6 7 7 8 8 8 7 7 6 6 6 8 8 7 8 8 6 6 7 7 7 8 8 8 8 8 7 8 8 8 7 7 7 8 8 8 7 8 9 10 10
1 3 4 0 3 2 4 6 3 5 4 2 8 3 7 6 6 7 6 7 10 7 1 5 4 3 1 1 1 1 1 2 3 4 4 5 6 5 5 6 7 8 8 7 6 4 4 3 4 5 6 6 5 6 5 7 7 7 7 5 6 6 6 7 7 7 8 9 8 8 8 7 8 7 8 7 8 8 8 8 8 8 8 7 7 7 7 7 6 7 7 7 7 7 9 10 9
2 2 2 1 1 2 5 1 3 4 5 5 3 7 5 7 7 7 10 9 7 6 6 6 6 4 2 1 3 2 1 1 1 2 3 4 4 5 6 4 5 6 5 6 7 5 5 4 5 5 7 9 7 7 5 7 5 7 6 8 7 6 8 7 7 7 8 9 8 8 8 7 5 8 6 8 8 8 8 8 8 9 9 8 8 8 7 6 7 8 7 7 6 7 9 9 8
11 12 11 12 9 4 5 8 3 2 3 5 3 11 1 4 4 8 9 6 4 4 6 7 5 3 3 2 2 2 2 3 3 3 3 4 4 5 4 5 4 4 6 8 6 3 5 5 6 6 6 9 8 9 6 7 5 6 7 8 7 6 7 6 8 7 9 9 8 8 7 5 8 8 7 9 9 8 8 8 9 9 9 8 8 8 7 7 8 9 9 7 7 8 9 9 8
Wind_Direction
307 333 320 253 59 91 43 358 136 318 62 278 74 75 193 158 225 86 151 354 82 277 208 46 82 72 196 202 168 141 186 135 198 133 214 234 290 134 131 127 123 123 131 144 145 137 138 144 137 123 125 123 118 113 112 107 104 100 96 95 92 90 92 91 87 87 95 98 98 102 99 99 91 85 88 89 89 89 90 90 89 88 90 94 95 92 90 90 90 89 89 96 99 92 90 90 89
299 328 21 38 36 59 223 125 101 1 35 51 233 96 249 305 67 188 173 176 183 124 109 98 85 84 62 83 113 128 45 356 191 197 273 290 91 90 134 139 139 136 142 142 140 129 130 136 130 131 129 125 122 120 116 112 108 103 101 98 95 93 92 91 91 90 92 95 101 102 101 92 91 92 92 91 90 91 89 87 87 89 93 94 96 95 95 96 95 93 96 100 99 99 97 93 91
343 19 11 27 23 75 86 30 252 25 103 168 264 208 340 144 184 213 211 174 145 134 151 96 92 64 41 31 33 22 233 332 99 260 103 146 132 195 153 140 133 135 143 137 135 132 128 140 140 138 131 129 128 123 121 117 113 110 105 100 99 98 96 95 94 93 92 97 99 96 96 94 94 94 94 93 94 93 91 91 88 88 92 98 99 99 98 98 96 95 98 103 105 103 99 95 93
62 42 96 68 245 29 58 33 87 128 131 204 270 266 183 183 217 204 234 224 146 130 193 35 53 263 78 43 114 95 43 89 250 170 140 176 202 145 146 136 129 134 137 130 130 129 132 149 143 141 136 134 130 126 124 119 116 114 109 105 102 101 100 99 97 95 98 100 102 110 99 93 96 97 99 98 94 94 92 89 87 88 96 104 103 101 99 98 98 97 100 102 99 98 99 99 98
41 358 93 114 110 349 103 115 140 98 167 196 173 269 255 209 203 207 190 246 229 139 63 112 72 339 146 126 160 182 218 249 124 191 122 187 125 144 137 132 136 141 142 132 127 129 144 150 146 144 141 137 133 131 130 125 122 119 115 111 109 105 103 102 101 99 102 104 102 102 105 99 96 95 96 95 96 95 91 88 88 94 103 106 104 102 101 100 100 101 101 101 100 97 95 95 94
47 33 4 117 301 160 59 65 68 162 217 154 119 229 221 208 186 184 135 287 197 195 170 71 159 189 12 309 175 117 193 116 200 241 164 219 148 146 140 137 137 143 148 131 136 140 152 157 148 152 143 141 137 136 135 131 129 128 125 120 114 112 111 109 106 104 104 104 100 99 104 105 104 101 96 93 93 93 92 93 94 99 105 108 104 104 101 100 101 102 104 104 102 99 96 96 97
275 40 351 24 29 47 170 136 179 184 255 158 193 193 188 204 221 122 109 100 294 79 187 149 134 88 63 305 20 225 210 215 111 207 167 165 140 144 143 145 139 146 151 144 144 151 157 156 155 152 144 148 143 141 142 137 137 136 132 126 122 120 117 116 113 110 108 108 106 102 97 81 86 92 96 93 95 98 100 97 95 99 108 108 106 102 100 101 100 101 101 101 100 97 95 94 90
61 143 315 118 304 47 51 187 178 166 359 178 230 158 187 195 158 143 173 105 201 138 31 128 130 104 255 24 164 261 345 163 234 245 130 139 142 147 146 146 143 151 151 150 154 157 162 159 157 149 151 152 147 148 145 143 142 141 137 131 128 126 124 122 120 117 114 112 112 108 99 97 92 89 91 97 100 99 102 101 100 105 110 109 105 99 99 100 101 101 100 98 97 97 96 93 91
349 91 313 71 55 24 63 70 303 216 290 282 271 287 162 167 146 135 151 259 34 63 119 172 222 90 235 62 189 278 302 302 302 156 135 141 149 154 149 151 151 152 152 152 157 160 163 170 155 154 155 156 153 151 150 148 148 147 141 135 133 131 129 126 125 123 121 119 115 113 107 101 98 100 106 106 103 100 103 102 102 105 110 108 107 105 95 95 99 104 102 103 102 99 95 95 93
9 72 278 117 132 45 16 305 89 178 246 255 192 179 160 169 166 101 150 101 180 122 156 98 131 92 136 137 321 332 345 336 122 125 142 153 152 153 153 158 156 152 156 156 159 163 164 171 158 156 157 155 154 153 154 152 151 148 142 137 135 132 130 129 129 128 126 125 122 115 110 109 109 110 112 109 106 102 102 104 106 110 112 111 106 101 98 98 101 106 106 103 103 99 98 99 95
267 17 135 76 28 106 151 226 278 320 299 321 284 246 210 126 123 144 263 157 43 134 185 199 31 130 95 244 211 246 293 303 167 161 164 160 155 157 155 155 155 155 159 160 160 162 167 165 162 160 160 159 159 155 153 154 152 150 145 141 137 135 134 133 131 129 129 128 128 124 120 121 125 123 115 114 113 111 104 105 109 114 117 114 111 99 92 93 107 112 111 105 102 101 98 94 91
343 20 8 105 164 156 223 154 261 275 295 323 226 147 186 146 110 126 137 120 224 122 158 146 216 143 67 353 289 298 326 280 203 160 161 155 158 159 151 147 151 158 159 158 160 166 166 161 161 166 164 161 161 154 153 156 156 154 151 146 145 142 139 137 134 132 131 132 128 117 120 125 130 130 122 117 115 116 113 111 115 120 121 116 112 105 98 106 112 114 111 105 100 103 103 95 89
114 98 89 86 216 156 157 102 217 292 342 273 186 204 123 120 192 177 161 100 100 125 308 222 126 87 142 185 256 305 280 229 221 179 156 151 155 154 141 146 157 156 159 160 164 166 167 164 166 167 167 162 157 155 157 158 159 156 155 151 149 147 145 142 140 139 136 136 132 125 118 118 123 128 129 124 120 118 123 116 118 127 127 123 120 108 105 111 113 113 110 109 103 101 97 93 89
122 181 122 159 43 120 134 158 15 154 258 244 268 136 160 151 239 166 126 123 206 154 264 183 143 131 107 13 295 266 232 210 212 179 149 136 138 146 149 152 156 159 163 165 168 168 169 172 168 168 163 162 156 156 160 163 161 158 160 155 151 149 148 146 146 145 142 138 126 110 99 99 110 109 103 109 112 113 107 114 125 131 130 124 114 104 106 110 112 114 110 103 101 99 96 94 90
211 127 82 122 38 87 229 125 201 158 232 183 191 135 183 280 118 144 153 145 237 208 352 65 173 119 237 152 273 208 205 200 185 150 131 114 128 147 148 152 160 161 160 172 170 170 174 171 172 168 168 162 156 158 164 168 164 162 160 158 152 152 150 147 146 144 139 127 116 105 90 87 95 95 99 103 103 102 105 114 126 132 136 121 113 102 103 103 104 103 101 101 99 98 96 93 90
143 85 81 101 356 133 224 129 51 101 251 175 178 149 111 333 219 133 254 138 174 19 358 191 14 200 223 168 230 205 188 170 160 119 126 110 106 138 145 151 153 168 167 173 169 177 173 174 174 137 153 146 145 154 154 165 168 165 163 157 153 154 151 147 143 138 130 124 111 101 100 96 95 99 102 104 105 101 103 109 122 131 134 125 110 106 106 105 104 104 103 101 99 97 93 89 86
79 78 61 44 143 166 230 142 143 201 241 227 277 172 158 195 229 259 90 92 128 182 30 286 213 354 200 222 282 247 165 131 114 120 122 120 119 144 146 147 145 161 175 184 158 175 177 175 160 153 158 148 166 166 158 159 172 166 163 157 154 153 151 145 139 129 122 116 112 108 101 100 103 104 95 101 101 107 114 119 126 133 135 132 112 112 110 107 105 103 101 98 95 90 83 76 74
57 93 113 93 198 127 202 170 189 206 137 210 185 200 118 153 139 181 80 38 65 18 61 311 317 324 256 272 282 173 138 137 145 142 160 154 154 161 173 172 166 187 176 177 189 185 169 181 153 164 144 161 157 144 166 169 160 167 159 158 154 150 144 135 131 134 131 126 120 113 108 109 109 108 107 105 107 115 118 125 129 131 134 124 117 117 114 108 105 102 99 96 92 86 76 77 70
99 118 91 204 188 234 151 201 191 126 228 178 183 184 156 198 138 225 111 260 63 113 301 9 328 312 359 13 100 134 139 147 156 166 169 173 178 179 182 178 182 174 193 185 182 189 186 182 158 179 173 173 171 148 141 162 161 164 159 155 148 145 143 138 135 133 136 138 133 119 115 114 114 112 115 116 111 116 123 125 129 128 128 130 121 119 117 112 106 101 95 91 87 80 73 77 75
212 122 183 248 205 226 221 183 202 211 132 148 162 208 157 202 137 182 169 167 76 187 193 323 268 248 327 74 131 137 149 160 169 175 182 186 188 185 184 192 180 197 192 191 184 189 188 191 172 184 183 181 174 166 144 157 165 162 161 158 151 145 145 145 143 144 144 148 138 127 122 121 116 117 116 115 110 106 115 120 125 128 132 131 118 104 100 98 95 92 90 86 79 76 83 76 82
224 83 159 221 190 110 232 179 244 231 176 154 141 71 147 254 201 149 156 116 256 261 229 176 198 206 188 180 161 156 161 171 182 188 190 194 201 199 199 197 193 194 192 175 184 192 192 188 181 191 187 184 182 176 159 171 168 165 167 162 157 152 150 149 150 149 153 150 142 134 130 128 123 120 123 121 119 115 105 106 120 127 123 108 91 96 95 89 88 88 80 76 76 84 84 76 86
91 212 201 176 127 63 202 189 177 144 169 111 122 131 211 82 56 122 150 160 214 211 226 216 200 165 158 172 183 168 173 181 189 191 197 197 196 198 203 209 211 194 166 188 194 192 192 189 188 191 189 188 188 181 180 175 172 176 174 168 162 159 158 158 159 158 158 157 149 142 131 125 127 126 133 134 131 132 124 122 124 124 117 103 108 109 108 108 101 99 95 89 77 74 76 74 66
188 317 253 201 192 156 193 151 249 144 116 131 143 205 103 146 198 188 173 192 232 224 234 211 188 177 172 154 155 174 180 188 194 199 198 201 205 205 203 199 194 195 191 201 191 195 191 189 190 188 193 190 193 184 179 169 186 181 178 174 169 170 164 162 170 167 167 161 155 152 145 143 140 143 142 146 146 143 144 143 141 134 126 116 121 123 118 115 115 109 102 98 93 87 78 70 70
106 189 191 269 185 207 20 16 157 149 132 187 188 89 144 150 191 130 196 240 228 236 264 227 151 129 143 153 182 179 186 187 198 202 199 202 199 202 197 195 201 198 199 202 198 195 189 192 189 188 193 193 192 187 182 181 189 184 183 175 182 174 167 172 172 175 164 168 163 163 156 153 153 152 156 154 159 150 157 154 148 141 129 124 126 124 125 120 113 114 114 110 105 92 96 78 72
97 171 208 222 84 311 345 54 52 96 87 125 113 125 252 181 166 76 243 242 252 271 59 112 134 141 158 169 180 192 196 207 211 212 221 229 223 224 233 224 206 202 208 206 203 202 198 190 188 193 193 193 193 190 190 183 187 188 185 184 191 175 180 177 171 166 171 169 170 165 160 156 157 156 160 164 154 164 155 157 159 159 140 141 134 131 136 131 123 124 125 124 118 116 109 99 89
170 203 130 86 56 349 343 17 33 41 92 82 92 189 322 248 248 246 237 247 247 119 74 121 132 148 172 187 188 186 195 203 206 207 214 211 218 214 227 215 206 211 211 206 204 208 203 192 193 196 193 192 190 190 195 189 189 193 189 189 193 177 190 179 168 173 177 169 175 177 174 167 170 167 164 161 164 168 166 162 166 168 158 154 146 144 151 137 134 129 124 124 123 122 119 123 112
147 74 84 91 308 2 5 138 342 322 105 314 153 248 282 320 99 279 310 264 111 95 103 138 150 174 188 190 195 202 197 204 204 205 208 219 221 216 225 220 219 219 207 216 212 209 200 200 202 197 195 190 188 193 194 195 190 196 194 186 190 190 189 181 178 174 176 179 179 179 180 178 171 168 166 166 170 166 169 171 178 169 163 165 154 145 146 142 139 138 142 141 135 125 113 113 114
93 133 93 24 346 45 4 66 345 353 39 50 140 177 203 306 77 228 239 331 252 141 139 160 186 187 193 200 198 205 211 218 205 171 208 204 214 211 214 212 219 212 208 216 212 202 200 207 205 201 198 192 192 196 195 196 193 194 194 192 192 191 186 188 186 180 180 179 180 183 184 182 177 176 172 170 171 170 173 176 175 177 178 167 157 147 143 139 134 124 117 118 119 114 110 94 88
147 117 119 314 2 24 350 137 310 2 139 139 130 78 305 127 232 247 299 357 52 162 172 190 205 216 219 215 215 212 219 213 196 211 218 216 217 212 218 217 213 209 220 217 207 200 209 205 206 206 201 198 199 199 201 202 195 191 193 201 196 188 191 191 190 189 184 181 179 185 188 183 183 179 180 178 176 176 173 170 177 188 176 166 155 149 136 128 119 115 103 109 109 111 111 101 86
129 39 120 24 9 340 321 320 339 94 253 54 352 252 267 256 244 216 263 21 61 102 235 232 234 230 231 221 219 229 237 219 215 220 223 220 218 214 223 225 218 218 220 216 201 213 209 205 206 204 205 203 203 202 201 207 202 193 191 197 196 191 193 194 195 190 187 184 181 184 188 186 186 186 180 182 179 177 177 178 178 183 177 166 153 150 145 144 136 133 135 123 127 131 129 125 119
138 251 57 112 63 253 309 26 293 140 357 42 87 187 287 270 281 273 290 231 178 219 236 234 240 247 237 228 229 232 238 220 223 223 227 228 226 223 228 234 221 222 223 213 212 215 200 207 199 209 203 207 202 205 201 202 201 199 193 192 194 194 196 200 198 195 192 191 184 186 188 188 190 188 185 181 185 183 179 183 185 185 172 163 161 163 148 145 144 147 148 134 126 120 128 138 135
26 77 283 326 158 278 298 325 171 156 337 58 89 315 243 272 289 291 319 339 173 212 234 247 246 247 248 239 232 240 242 233 242 244 237 235 227 227 222 226 215 216 217 217 219 209 210 208 202 210 203 209 207 207 206 202 199 200 198 196 193 194 198 201 202 203 200 194 192 189 192 192 190 187 185 185 184 191 193 184 184 176 171 164 162 159 152 153 155 146 162 148 140 148 142 141 134
360 104 253 237 50 254 341 118 325 343 119 9 152 217 316 322 261 271 351 80 142 193 260 266 259 252 251 245 240 239 256 256 244 240 237 229 229 225 225 226 217 216 215 213 211 203 212 207 204 207 208 208 209 206 210 209 202 202 200 199 200 195 201 201 199 203 206 201 193 194 192 191 195 194 186 185 187 190 196 202 192 177 168 171 167 168 171 165 155 156 162 176 157 154 159 149 142
253 40 164 212 167 240 260 305 319 37 95 207 11 206 237 251 286 289 319 60 49 282 265 262 255 253 248 250 249 248 246 252 247 237 237 224 227 220 224 223 221 218 217 215 212 204 208 201 202 207 211 207 207 206 205 206 206 202 202 203 203 208 208 203 200 200 208 205 197 196 190 194 193 195 193 187 188 193 196 199 190 185 179 171 169 173 181 171 166 160 162 177 167 155 161 160 155
197 196 130 265 272 204 217 156 216 68 15 189 2 259 276 274 282 293 282 259 328 279 253 261 262 255 261 254 249 247 246 247 247 238 237 233 228 226 221 219 216 213 215 212 208 210 205 203 201 208 207 202 204 202 201 202 198 206 206 204 209 215 213 208 201 205 207 206 205 198 193 196 194 197 198 196 190 183 191 193 189 180 183 186 170 169 169 174 174 175 166 166 161 161 159 154 143
187 178 176 145 146 213 211 244 277 168 144 232 221 224 255 274 287 287 293 25 228 263 285 274 261 257 257 252 251 248 244 249 249 253 248 241 227 224 222 217 215 212 214 208 208 204 206 203 200 204 207 200 193 193 183 192 191 200 207 215 223 218 213 209 208 210 203 208 206 201 200 204 196 196 194 197 207 195 191 194 191 180 178 181 184 176 174 179 184 180 181 162 150 118 103 118 122
117 86 104 167 168 273 275 285 275 5 98 243 231 258 273 276 269 271 276 331 317 288 275 263 256 252 247 250 250 250 249 246 257 236 241 237 233 223 219 205 213 210 211 203 203 206 204 202 188 205 198 185 183 188 191 191 197 204 216 213 218 212 214 211 211 212 209 210 203 202 202 206 205 201 199 190 196 199 197 192 180 191 194 182 184 194 190 190 188 182 165 160 156 147 138 143 149
139 137 134 171 172 144 214 123 352 324 148 297 39 323 269 259 271 268 273 315 270 252 254 257 255 249 249 249 257 251 247 281 285 279 266 269 255 242 217 203 191 196 217 200 203 207 204 197 196 203 178 188 194 194 194 195 200 202 198 210 211 206 208 211 217 211 213 212 211 209 209 208 208 206 202 198 191 193 194 193 191 183 184 203 193 183 172 168 171 173 156 142 167 161 160 167 165
51 147 162 107 252 238 290 288 338 331 75 270 354 336 275 264 261 264 246 243 244 241 226 244 246 260 255 249 251 260 275 269 263 251 264 262 272 276 217 214 212 213 211 202 212 205 199 199 204 196 190 189 199 195 189 202 202 203 197 200 192 208 230 218 219 211 201 209 215 216 212 208 209 210 199 198 195 192 195 195 198 194 189 187 184 170 164 172 179 178 176 171 156 141 130 178 177
107 100 109 192 241 119 249 282 2 354 70 293 321 312 281 277 276 263 266 240 258 259 247 249 230 241 245 241 237 248 256 263 272 272 267 254 253 262 247 224 222 214 213 204 203 203 200 202 200 197 196 196 195 197 198 200 186 165 130 144 171 170 192 200 205 215 204 208 220 215 221 214 207 206 204 201 203 209 203 198 190 185 188 192 192 181 178 183 179 180 181 185 166 156 170 191 200
4 120 126 121 161 213 146 206 326 320 50 58 330 291 299 336 343 335 350 340 315 285 308 272 257 239 247 275 292 242 249 259 275 284 276 273 270 246 225 231 212 206 212 208 200 200 198 200 201 198 194 195 197 190 189 164 134 126 103 68 72 73 43 117 189 222 212 213 218 212 221 217 222 217 205 203 203 205 208 212 197 193 193 195 198 195 189 190 186 187 184 178 183 177 181 183 198
340 227 167 191 175 140 254 18 103 23 339 348 50 358 318 302 293 246 281 341 322 283 312 273 258 256 278 267 257 273 266 239 238 257 269 271 255 269 263 238 213 221 221 220 209 211 203 205 198 196 193 191 194 189 178 165 176 172 165 172 190 196 215 185 204 207 203 210 214 202 204 208 221 228 221 213 204 207 213 209 214 210 204 202 201 203 196 190 193 191 190 187 189 192 179 169 192
116 253 174 166 144 128 138 128 75 344 152 337 28 142 270 320 294 293 314 339 305 308 259 267 288 290 279 261 265 261 247 262 257 264 274 280 270 276 271 234 220 218 235 201 196 202 202 198 193 194 196 193 183 176 170 170 178 187 192 199 204 206 214 225 214 203 200 212 204 208 209 206 214 220 225 222 220 215 216 214 214 215 212 214 211 205 197 195 195 195 187 191 193 181 160 183 188
210 249 116 108 104 125 157 103 117 195 251 299 37 97 229 303 285 258 304 323 300 309 291 296 290 282 275 269 267 264 254 244 248 257 265 256 265 244 263 263 228 235 216 178 193 189 197 200 188 196 192 181 178 166 174 182 188 193 199 211 212 217 216 224 189 207 201 188 201 213 210 215 213 220 224 223 225 218 214 219 208 206 208 201 193 204 210 206 199 200 194 198 186 184 186 189 192
224 196 126 121 134 138 117 92 107 117 34 281 333 302 274 257 267 308 359 337 307 288 288 298 301 302 292 281 270 264 266 261 246 265 274 281 275 266 260 282 268 248 204 182 192 191 189 179 177 172 185 179 180 174 180 195 198 196 203 205 219 227 226 231 177 186 193 191 209 212 215 218 216 219 222 226 225 228 220 212 211 212 208 208 199 212 212 200 197 188 186 191 196 195 196 204 190
251 134 90 94 80 68 89 102 80 341 78 266 239 200 195 279 278 331 337 238 266 265 282 292 297 294 293 306 324 318 301 295 280 256 270 283 286 286 264 282 311 291 221 144 122 139 154 150 166 172 196 187 183 184 190 199 203 197 205 210 221 228 216 230 165 206 208 188 217 215 217 218 217 220 220 221 224 219 221 222 216 218 215 203 195 208 204 196 195 196 198 199 200 197 198 199 202
133 100 76 35 37 20 21 59 79 52 327 253 247 300 156 290 272 226 147 213 200 252 303 304 314 344 348 308 319 347 351 341 337 315 289 286 288 311 314 324 330 3 22 68 82 112 127 154 169 182 205 187 187 194 191 203 203 202 211 212 218 225 212 204 214 233 214 213 224 223 216 223 221 227 224 229 226 227 233 229 231 230 232 241 218 203 210 208 202 196 195 201 209 206 203 203 209
122 99 124 76 352 13 30 345 32 139 271 265 257 232 138 187 289 285 238 283 227 205 178 270 343 351 335 341 340 335 335 333 328 345 338 336 342 351 20 13 354 346 14 54 80 88 143 163 163 193 221 198 198 202 197 210 204 213 219 216 221 222 208 206 215 224 210 217 218 226 220 223 230 238 238 238 236 233 238 240 232 232 234 232 231 223 218 212 208 215 213 204 207 215 220 214 212
84 91 70 111 238 37 282 13 254 220 207 273 342 186 334 239 230 254 304 262 263 223 210 201 267 293 304 333 326 315 311 326 326 315 324 328 338 335 346 341 345 352 345 317 276 208 182 173 178 191 228 203 201 195 204 211 211 217 213 218 223 214 214 214 220 225 212 217 214 223 211 223 219 224 224 226 224 215 223 234 237 237 239 235 239 233 226 218 208 199 202 205 208 207 209 205 209
98 126 129 100 128 87 248 278 251 307 289 272 307 294 271 246 273 245 244 254 235 236 228 236 243 257 282 300 306 302 279 241 276 285 293 294 301 312 305 302 307 309 317 314 298 232 220 207 204 204 237 200 201 199 207 211 220 220 215 219 220 209 221 216 222 220 217 213 208 219 215 216 217 220 218 222 217 218 222 229 234 239 240 240 237 239 234 223 210 207 206 207 208 210 206 207 210
204 110 149 177 145 158 213 192 210 219 206 289 280 69 230 101 237 183 226 239 278 263 244 249 256 269 286 277 278 292 333 349 347 313 294 302 311 310 309 311 298 273 275 294 291 265 236 243 233 237 254 240 203 213 208 219 224 218 216 217 219 214 223 221 225 218 215 213 213 218 221 218 219 223 218 224 211 211 219 222 228 234 231 231 228 228 228 224 217 213 209 212 212 209 209 208 211
21 154 79 90 222 139 152 208 145 211 345 355 228 216 191 169 274 278 232 272 279 296 294 332 300 339 326 332 335 323 324 324 336 347 346 325 299 311 311 304 301 299 290 277 269 254 230 243 240 241 243 245 220 217 220 220 226 217 215 217 220 218 223 227 233 221 221 209 215 213 224 219 222 221 221 210 214 207 213 218 221 227 227 228 229 228 223 221 216 214 216 216 218 208 209 209 216
227 104 204 207 130 98 94 73 20 101 40 256 152 303 289 298 320 284 318 285 291 336 300 327 306 299 4 257 288 318 312 321 341 350 342 332 330 304 270 284 295 306 304 292 281 253 236 245 241 249 243 239 226 220 227 222 225 219 223 219 220 218 218 219 221 222 220 217 216 219 221 223 220 217 219 207 214 211 214 215 220 223 224 225 229 229 226 222 216 215 217 217 222 213 214 213 213
97 187 230 184 137 118 129 219 354 66 196 266 96 235 303 20 284 335 332 306 295 264 291 333 293 340 331 278 335 301 317 317 309 306 301 281 276 304 315 249 268 306 304 302 288 270 250 242 246 257 265 253 238 223 227 222 222 225 226 221 221 219 218 223 222 225 219 221 225 224 224 226 220 215 210 212 209 214 216 216 221 224 222 222 226 228 227 227 222 222 220 222 220 210 214 215 216
145 197 193 117 233 223 312 88 249 144 272 272 301 275 261 192 243 344 317 207 251 251 200 85 240 270 247 337 335 340 337 351 2 353 347 351 348 344 347 344 339 344 267 252 251 241 233 241 242 239 257 255 247 232 226 232 225 231 227 225 220 222 222 224 224 224 222 226 228 222 222 225 223 213 215 210 212 216 215 218 219 225 222 224 224 229 227 227 223 229 224 227 219 215 216 218 218
47 92 78 117 101 158 126 199 173 124 244 52 287 33 254 201 219 201 230 216 217 236 121 173 210 181 169 93 136 116 37 19 349 346 339 330 330 326 323 328 331 329 328 314 300 295 284 271 271 267 274 272 272 255 234 237 229 231 239 234 232 221 221 221 220 220 226 229 229 223 225 224 220 214 216 211 214 214 212 216 219 221 224 224 221 225 225 227 224 231 226 224 221 213 220 220 218
94 94 165 178 34 229 109 45 130 177 173 182 263 305 282 261 215 192 218 214 210 192 162 153 174 189 221 198 147 142 154 221 273 288 305 315 318 318 317 313 300 309 304 295 289 298 298 315 290 279 274 281 270 260 241 249 232 236 235 235 231 221 222 215 223 222 230 234 232 226 226 224 213 225 206 216 217 216 213 214 216 218 218 220 216 220 219 220 225 232 229 224 223 218 223 225 218
171 167 189 177 131 139 160 255 37 98 134 235 142 259 230 270 183 203 216 219 186 211 132 132 159 181 181 192 220 199 200 238 238 250 262 284 296 296 291 296 297 310 285 272 278 302 296 278 271 281 274 266 267 269 247 256 244 243 237 238 234 231 231 222 221 221 229 235 231 227 224 218 225 226 203 218 219 215 213 212 217 219 218 221 220 218 215 214 224 229 233 222 221 215 222 228 217